Change the Weather History Date:

Sunday, February 23, 2014

  Actual Average (KDAG) Record (KDAG)
Temperature  
Mean Temperature 60 °F -  
Max Temperature 70 °F 67 °F 83 °F (1989)
Min Temperature 50 °F 42 °F 26 °F (1951)
Degree Days  
Heating Degree Days 5    
Growing Degree Days 10 (Base 50)    
Moisture  
Dew Point 17 °F    
Average Humidity 19    
Maximum Humidity 26    
Minimum Humidity 13    
Precipitation  
Precipitation 0.00 in - - ()
Sea Level Pressure  
Sea Level Pressure 29.93 in    
Wind  
Wind Speed 6 mph (NE)    
Max Wind Speed 13 mph    
Max Gust Speed 17 mph    
Visibility 10 miles    
Events      
Averages and records for this station are not official NWS values.
T = Trace of Precipitation, MM = Missing Value Source: NWS Daily Summary

Daily Weather History Graph

Daily Weather History Graph

Search for Another Location

Airport or City:

Trip Planner

Search our weather history database for the weather conditions in past years. The results will help you decide how hot, cold, wet, or windy it might be!

Date:

Astronomy

Feb. 23, 2014 Rise Set
Actual Time 6:23 AM PST 5:36 PM PST
Civil Twilight 5:57 AM PST 6:02 PM PST
Nautical Twilight 5:28 AM PST 6:31 PM PST
Astronomical Twilight 4:58 AM PST 7:01 PM PST
Moon 1:20 AM PST (2/23) 11:49 AM PST (2/23)
Length of Visible Light 12h 04m
Length of Day
11h 13m
Last Quarter, 38% of the Moon is Illuminated
Feb 23
Last Quarter
Mar 1
New
Mar 8
First Quarter
Mar 16
Full
Mar 23
Last Quarter

Hourly Weather History & Observations

Time (PST) Temp. Dew Point Humidity Pressure Visibility Wind Dir Wind Speed Gust Speed Precip Events Conditions
12:55 AM 55.4 °F 15.6 °F 21% 29.90 in 10.0 mi NNE 4.6 mph - N/A   Clear
1:55 AM 56.8 °F 15.8 °F 20% 29.88 in 10.0 mi NNE 4.6 mph - N/A   Clear
2:55 AM 52.9 °F 15.8 °F 23% 29.88 in 10.0 mi NNW 5.8 mph - N/A   Clear
3:55 AM 52.5 °F 16.2 °F 24% 29.91 in 10.0 mi NNE 5.8 mph - N/A   Clear
4:55 AM 54.9 °F 16.5 °F 22% 29.91 in 10.0 mi NNE 5.8 mph - N/A   Clear
5:55 AM 50.9 °F 16.5 °F 26% 29.94 in 10.0 mi NNE 8.1 mph - N/A   Clear
6:55 AM 52.9 °F 16.9 °F 24% 29.95 in 10.0 mi NNE 8.1 mph - N/A   Clear
7:55 AM 52.2 °F 17.2 °F 25% 29.99 in 10.0 mi NNE 8.1 mph - N/A   Clear
8:55 AM 57.9 °F 18.9 °F 22% 29.98 in 10.0 mi NE 4.6 mph - N/A   Clear
9:55 AM 63.9 °F 17.6 °F 17% 29.98 in 10.0 mi Calm Calm - N/A   Clear
10:55 AM 66.0 °F 15.6 °F 14% 29.97 in 10.0 mi ESE 8.1 mph - N/A   Clear
11:55 AM 66.9 °F 15.8 °F 14% 29.96 in 10.0 mi East 12.7 mph 17.3 mph N/A   Clear
12:55 PM 68.4 °F 16.2 °F 14% 29.93 in 10.0 mi ESE 11.5 mph - N/A   Clear
1:55 PM 69.1 °F 16.3 °F 13% 29.91 in 10.0 mi East 9.2 mph 16.1 mph N/A   Clear
2:55 PM 70.0 °F 17.4 °F 13% 29.91 in 10.0 mi East 8.1 mph 13.8 mph N/A   Clear
3:55 PM 70.0 °F 17.8 °F 14% 29.90 in 10.0 mi ESE 3.5 mph - N/A   Clear
4:55 PM 68.7 °F 17.6 °F 14% 29.90 in 10.0 mi ESE 11.5 mph - N/A   Clear
5:55 PM 66.2 °F 18.1 °F 16% 29.92 in 10.0 mi ESE 8.1 mph - N/A   Clear
6:55 PM 65.8 °F 18.0 °F 16% 29.93 in 10.0 mi ESE 8.1 mph - N/A   Clear
7:55 PM 63.7 °F 18.7 °F 18% 29.94 in 10.0 mi NNE 1.2 mph - N/A   Clear
8:55 PM 62.1 °F 18.9 °F 19% 29.94 in 10.0 mi NW 2.3 mph - N/A   Clear
9:55 PM 62.2 °F 18.1 °F 18% 29.94 in 10.0 mi West 2.3 mph - N/A   Clear
10:55 PM 59.2 °F 18.3 °F 20% 29.94 in 10.0 mi WNW 3.5 mph - N/A   Clear
11:55 PM 57.7 °F 18.7 °F 22% 29.95 in 10.0 mi NNW 4.6 mph - N/A   Clear